[[{"header":{"parameterUnit":"m.s-1","parameterCategory":1,"la1":30.2991,"la2":30.254,"lo1":-89.0895,"lo2":-89.0444,"dx":0.0017,"dy":0.0017,"nx":28,"ny":28,"refTime":"2022-11-15T15:00:00:Z","depth":0,"parameterNumber":2,"parameterNumberName":"U-component_of_WINDS"},"data":[0,0,0,0,0,0,0,0,0,0,0,0,0,0,0,0,0,0,0,0,0,0,0,0,0,0,0,0,0,0,0,0,0,0,0,0,0,0,0,0,0,0,0,0,0,0,0,0,0,0,0,0,0,0,0,0,0,0,3.9661,3.9661,0,3.9695,3.9695,3.9696,3.9633,3.9631,3.9629,3.9627,3.966,3.9663,3.9665,0,0,0,0,0,0,0,0,0,0,0,0,0,3.9542,3.9545,3.9661,3.9661,3.9662,3.9695,3.9695,3.9696,3.9633,3.9631,3.9628,3.9626,3.9659,3.9662,3.9666,0,0,0,0,0,0,0,0,0,0,0,0,0,3.9587,3.9546,3.9661,3.9635,3.9633,3.9695,3.9695,3.9696,3.9634,3.9631,3.9628,3.9625,3.9658,3.9662,3.9666,3.9755,0,0,3.9679,3.9681,0,0,0,0,0,0,0,0,3.9584,3.9591,3.9638,3.9637,3.9634,3.9656,3.9665,3.9715,3.9635,3.9633,3.9627,3.9623,3.9661,3.9665,3.9678,3.9756,3.9757,3.9679,3.9682,3.9684,3.9685,0,0,0,0,0,0,0,3.9581,3.9589,3.9674,3.9639,3.9637,3.9621,3.9624,3.9675,3.9664,3.9633,3.9629,3.9634,3.966,3.9674,3.9678,3.9758,3.9679,3.9683,3.9686,3.9687,3.9912,3.9916,0,0,0,0,0,0,3.9582,3.9587,3.9673,3.9675,3.9601,3.9626,3.9629,3.9653,3.9664,3.9662,3.9636,3.9631,3.9668,3.9673,3.9679,3.9785,3.9684,3.9688,3.969,3.9909,3.9913,3.9917,0,0,0,0,0,0,3.9579,3.959,3.9672,3.963,3.9639,3.9631,3.9658,3.9655,3.9669,3.9666,3.9664,3.9653,3.9666,3.9673,3.9737,3.9785,3.969,3.9693,3.9905,3.991,3.9915,3.9996,0,0,0,0,0,0,3.9576,3.9589,3.9623,3.9631,3.9642,3.9729,3.9661,3.9658,3.9677,3.967,3.9681,3.968,3.9664,3.9731,3.9741,3.9789,3.9697,3.9901,3.9907,3.9913,3.9989,4.0003,4.0015,0,0,0,0,0,3.9572,3.9643,3.9625,3.9635,3.9683,3.9732,3.9738,3.9719,3.9681,3.9715,3.9713,3.968,3.9778,3.9738,3.9749,3.9799,3.9897,3.9905,3.9913,3.9983,4.0,4.0015,0,0,0,0,0,0,3.9639,3.9644,3.9623,3.9699,3.9716,3.9721,3.9763,3.9738,3.9765,3.9757,3.9732,3.9735,3.9804,3.9807,3.9762,3.9886,3.9831,3.9842,3.9881,3.9897,3.9911,3.9908,3.97,0,0,0,0,0,3.9663,3.9703,3.9704,3.9771,3.9781,3.9771,3.9791,3.9775,3.9791,3.9798,3.98,3.9817,3.9851,3.9874,3.9906,3.9989,3.9991,4.0029,4.0043,4.0053,4.0063,4.0108,4.0126,3.9942,3.9942,3.9942,0,0,3.9713,3.972,3.9746,3.9785,3.9796,3.9838,3.9777,3.9823,3.9853,3.9804,3.9865,3.9868,3.9884,3.9959,3.9991,3.9964,4.0114,4.0063,4.0072,4.0075,4.0118,4.0136,4.0151,3.9948,3.9947,3.9946,0,0,3.9824,3.9833,3.9891,3.9904,3.9921,3.9915,3.9929,3.9939,3.9939,4.0,3.9964,4.0,4.006,4.0074,4.0089,4.0209,4.018,4.022,4.0289,4.0334,4.0348,4.0361,4.0405,4.0421,4.0229,4.0229,4.0229,0,3.9883,3.9944,3.9923,3.9973,3.9991,3.995,4.0009,4.0022,4.0049,4.0063,4.0032,4.0109,4.0117,4.0194,4.0224,4.0237,4.0253,4.0218,4.0348,4.0361,4.0372,4.0413,4.043,4.0234,4.0233,4.0233,4.0232,0,4.0016,4.0059,4.0104,4.0133,4.0156,4.021,4.0198,4.0225,4.0207,4.0204,4.0268,4.0276,4.031,4.0327,4.031,4.0403,4.0386,4.0352,4.0297,4.0395,4.0433,4.0449,4.0241,4.0239,4.0238,4.0237,0,0,4.0169,4.0188,4.0204,4.0218,4.0236,4.0269,4.0321,4.0355,4.0379,4.0399,4.0443,4.0496,4.0466,4.0483,4.0467,4.0507,4.0603,4.0468,4.0468,4.0494,4.0707,4.0733,4.0752,4.0584,4.0587,4.0589,4.0706,0,4.028,4.0371,4.0355,4.0444,4.0484,4.0447,4.0493,4.0509,4.0508,4.0542,4.054,4.0579,4.0535,4.0546,4.0583,4.0583,4.0645,4.0574,4.0624,4.0626,4.0622,4.0771,4.0798,4.0908,4.0721,4.0723,4.0725,0,4.0421,4.0449,4.0542,4.0556,4.0572,4.0613,4.0644,4.0677,4.0695,4.0692,4.0713,4.0691,4.0743,4.0688,4.0761,4.0713,4.0733,4.0736,4.074,4.0744,4.0682,4.078,4.0943,4.096,4.0749,4.0747,4.0745,0,4.0525,4.0585,4.0649,4.0662,4.0679,4.0709,4.0717,4.0732,4.0755,4.0782,4.0796,4.0829,4.0846,4.0872,4.086,4.082,4.0936,4.0879,4.0935,4.0935,4.096,4.0959,4.1129,4.0973,4.0973,4.0972,4.0972,0,4.0651,4.0709,4.0696,4.0735,4.08,4.0782,4.0847,4.0851,4.0865,4.0905,4.0874,4.0912,4.0893,4.093,4.092,4.0983,4.0991,4.099,4.0987,4.0993,4.0993,4.1005,4.0998,4.0977,4.0976,4.0975,4.0974,0,4.0777,4.077,4.0838,4.0849,4.0854,4.0901,4.0911,4.0948,4.0945,4.0996,4.1007,4.1003,4.1045,4.1035,4.108,4.1074,4.1154,4.114,4.1148,4.1145,4.1202,4.1197,4.1386,4.141,4.1238,4.1239,4.1241,0,4.0858,4.0902,4.0919,4.0944,4.0955,4.0996,4.1019,4.1003,4.1028,4.1054,4.1088,4.1127,4.1158,4.1227,4.1228,4.1263,4.1251,4.1315,4.1256,4.1261,4.1253,4.1251,4.1255,4.1326,4.1328,4.133,4.1331,0,4.1002,4.0998,4.1032,4.1067,4.1095,4.1121,4.1144,4.1166,4.1153,4.1183,4.1226,4.125,4.1298,4.1337,4.137,4.1379,4.1354,4.135,4.1365,4.1372,4.1375,4.1375,4.118,4.1346,4.1344,4.1343,4.1342,4.1342,4.1109,4.1147,4.1166,4.1206,4.1222,4.1245,4.1281,4.1284,4.132,4.1358,4.1347,4.1396,4.1415,4.1456,4.1469,4.1508,4.1484,4.1505,4.1511,4.1516,4.1524,4.1369,4.1514,4.1513,4.1513,4.1513,4.1512,0,4.1252,4.1263,4.13,4.1335,4.1367,4.1341,4.1366,4.1394,4.1439,4.1458,4.149,4.1541,4.158,4.1585,4.1622,4.1652,4.1641,4.1662,4.166,4.1663,4.1543,4.1527,4.167,4.167,4.167,4.167,4.167,4.167,4.1331,4.1395,4.1393,4.1466,4.1476,4.1525,4.1542,4.1563,4.1579,4.1637,4.167,4.1673,4.1688,4.1726,4.1761,4.1762,4.1777,4.1803,4.1799,4.1687,4.1671,4.1656,4.164,4.1806,4.1806,4.1915,4.1917,4.1917]},{"header":{"parameterUnit":"m.s-1","parameterCategory":1,"la1":30.2991,"la2":30.254,"lo1":-89.0895,"lo2":-89.0444,"dx":0.0017,"dy":0.0017,"nx":28,"ny":28,"refTime":"2022-11-15T15:00:00:Z","depth":0,"parameterNumber":3,"parameterNumberName":"V-component_of_WINDS"},"data":[0,0,0,0,0,0,0,0,0,0,0,0,0,0,0,0,0,0,0,0,0,0,0,0,0,0,0,0,0,0,0,0,0,0,0,0,0,0,0,0,0,0,0,0,0,0,0,0,0,0,0,0,0,0,0,0,0,0,-8.191,-8.1912,0,-8.2111,-8.2114,-8.2116,-8.209,-8.2086,-8.2083,-8.208,-8.2278,-8.2286,-8.2294,0,0,0,0,0,0,0,0,0,0,0,0,0,-8.1496,-8.1504,-8.191,-8.1912,-8.1915,-8.2111,-8.2114,-8.2116,-8.209,-8.2086,-8.2082,-8.2079,-8.2275,-8.2285,-8.2295,0,0,0,0,0,0,0,0,0,0,0,0,0,-8.1684,-8.1507,-8.1909,-8.1926,-8.1929,-8.211,-8.2114,-8.2117,-8.2091,-8.2086,-8.2081,-8.2077,-8.2272,-8.2284,-8.2296,-8.2472,0,0,-8.2335,-8.234,0,0,0,0,0,0,0,0,-8.1674,-8.17,-8.1921,-8.1925,-8.1929,-8.2071,-8.2041,-8.2236,-8.2092,-8.2029,-8.208,-8.2074,-8.2212,-8.2229,-8.2278,-8.2481,-8.249,-8.2336,-8.2343,-8.2349,-8.2352,0,0,0,0,0,0,0,-8.1661,-8.1691,-8.1989,-8.1924,-8.1929,-8.1921,-8.1942,-8.2077,-8.2146,-8.2034,-8.2033,-8.2058,-8.2214,-8.2266,-8.2282,-8.2492,-8.2335,-8.2346,-8.2354,-8.2359,-8.2851,-8.2857,0,0,0,0,0,0,-8.1645,-8.168,-8.1983,-8.1995,-8.1787,-8.1932,-8.1956,-8.203,-8.2144,-8.2157,-8.2062,-8.2056,-8.2247,-8.2268,-8.2289,-8.2503,-8.2349,-8.236,-8.2367,-8.2846,-8.2852,-8.2858,0,0,0,0,0,0,-8.1636,-8.1672,-8.1975,-8.1838,-8.1876,-8.1945,-8.2028,-8.2036,-8.2089,-8.2165,-8.2176,-8.2103,-8.2244,-8.2271,-8.2428,-8.2509,-8.2366,-8.2377,-8.2839,-8.2848,-8.2855,-8.2931,0,0,0,0,0,0,-8.1624,-8.1669,-8.1738,-8.1839,-8.1883,-8.2112,-8.2033,-8.2044,-8.2111,-8.2105,-8.2207,-8.2218,-8.2242,-8.2409,-8.244,-8.2524,-8.2387,-8.2832,-8.2843,-8.2853,-8.2922,-8.2941,-8.2958,0,0,0,0,0,-8.1609,-8.1749,-8.1741,-8.1778,-8.1971,-8.2117,-8.2141,-8.2168,-8.2118,-8.2187,-8.2236,-8.2215,-8.2496,-8.2425,-8.246,-8.2549,-8.2827,-8.284,-8.2852,-8.2914,-8.2937,-8.2958,0,0,0,0,0,0,-8.1651,-8.1762,-8.1755,-8.1932,-8.2016,-8.2112,-8.2199,-8.2192,-8.2289,-8.2279,-8.2306,-8.2329,-8.2487,-8.2533,-8.2453,-8.2725,-8.2654,-8.2674,-8.2689,-8.2712,-8.273,-8.2715,-8.2397,0,0,0,0,0,-8.1682,-8.1793,-8.1883,-8.203,-8.2073,-8.213,-8.2194,-8.2208,-8.2294,-8.2328,-8.2389,-8.2472,-8.2579,-8.2648,-8.275,-8.2929,-8.295,-8.3007,-8.3025,-8.304,-8.3056,-8.3155,-8.3181,-8.29,-8.29,-8.2899,0,0,-8.1744,-8.1819,-8.1887,-8.2041,-8.2107,-8.2221,-8.2159,-8.2281,-8.2365,-8.2346,-8.2498,-8.2546,-8.264,-8.2808,-8.2885,-8.2851,-8.3139,-8.3056,-8.3067,-8.3075,-8.317,-8.3197,-8.3221,-8.2908,-8.2907,-8.2905,0,0,-8.1916,-8.1984,-8.2115,-8.2184,-8.2287,-8.2324,-8.2355,-8.2454,-8.2486,-8.264,-8.2629,-8.2728,-8.2911,-8.2979,-8.3037,-8.3239,-8.3223,-8.3271,-8.3365,-8.3461,-8.3483,-8.3503,-8.3575,-8.36,-8.3288,-8.3288,-8.3288,0,-8.198,-8.2153,-8.2182,-8.2308,-8.2375,-8.2368,-8.25,-8.2564,-8.2693,-8.274,-8.2701,-8.2933,-8.2995,-8.318,-8.323,-8.3277,-8.3313,-8.3259,-8.3478,-8.3498,-8.3517,-8.3586,-8.3613,-8.3293,-8.3293,-8.3292,-8.3292,0,-8.2227,-8.2347,-8.244,-8.2569,-8.2648,-8.2775,-8.2823,-8.2898,-8.2906,-8.2947,-8.3104,-8.3179,-8.3297,-8.3342,-8.3349,-8.3529,-8.3505,-8.3472,-8.3401,-8.3549,-8.3614,-8.364,-8.3301,-8.3299,-8.3297,-8.3296,0,0,-8.2428,-8.2576,-8.2609,-8.2669,-8.2783,-8.2875,-8.3002,-8.3121,-8.3185,-8.3276,-8.3382,-8.3539,-8.3511,-8.3577,-8.3592,-8.3676,-8.3832,-8.3633,-8.3636,-8.3667,-8.4034,-8.4058,-8.4088,-8.3823,-8.3828,-8.3832,-8.4026,0,-8.2612,-8.284,-8.2872,-8.3072,-8.3184,-8.3179,-8.329,-8.3371,-8.3413,-8.3512,-8.3557,-8.3668,-8.3621,-8.3662,-8.3745,-8.3795,-8.3906,-8.3782,-8.3921,-8.3925,-8.3897,-8.4122,-8.4148,-8.4327,-8.4052,-8.4056,-8.406,0,-8.2855,-8.2957,-8.317,-8.3271,-8.3319,-8.3418,-8.3531,-8.3626,-8.3717,-8.3742,-8.3818,-8.3824,-8.3954,-8.3879,-8.4058,-8.3973,-8.4032,-8.4065,-8.4073,-8.4086,-8.4001,-8.4141,-8.4385,-8.4412,-8.41,-8.4097,-8.4094,0,-8.2982,-8.3171,-8.3323,-8.3374,-8.3495,-8.3566,-8.3619,-8.3706,-8.3777,-8.3874,-8.392,-8.403,-8.409,-8.4175,-8.4209,-8.4152,-8.4387,-8.4315,-8.441,-8.4409,-8.4459,-8.4455,-8.4715,-8.4498,-8.4497,-8.4497,-8.4496,0,-8.3183,-8.3313,-8.3382,-8.3475,-8.3622,-8.3656,-8.3799,-8.3849,-8.3928,-8.403,-8.4032,-8.4127,-8.4167,-8.4268,-8.4296,-8.444,-8.4467,-8.449,-8.4495,-8.449,-8.4487,-8.4528,-8.4516,-8.4504,-8.4502,-8.4501,-8.45,0,-8.3348,-8.3399,-8.3565,-8.3668,-8.3697,-8.38,-8.3887,-8.3977,-8.4019,-8.4149,-8.4181,-8.4246,-8.4366,-8.4409,-8.4553,-8.4572,-8.474,-8.4735,-8.471,-8.4711,-8.4804,-8.4795,-8.5099,-8.5141,-8.4896,-8.4898,-8.49,0,-8.3472,-8.3573,-8.3688,-8.3759,-8.3816,-8.3928,-8.4001,-8.4039,-8.4114,-8.4228,-8.4305,-8.4425,-8.4522,-8.4713,-8.4772,-8.4883,-8.4881,-8.498,-8.4897,-8.4889,-8.4882,-8.4876,-8.4886,-8.4995,-8.4997,-8.4999,-8.5001,0,-8.3688,-8.371,-8.3816,-8.3933,-8.4021,-8.4113,-8.4202,-8.4259,-8.4311,-8.4395,-8.4519,-8.4596,-8.4746,-8.4864,-8.4978,-8.5031,-8.5025,-8.5027,-8.5055,-8.505,-8.5031,-8.5043,-8.4751,-8.5019,-8.5018,-8.5016,-8.5015,-8.5014,-8.3837,-8.3927,-8.4023,-8.4142,-8.4215,-8.4299,-8.439,-8.4445,-8.455,-8.4677,-8.4693,-8.4826,-8.4916,-8.507,-8.5128,-8.5231,-8.5204,-8.5244,-8.5254,-8.5264,-8.5271,-8.5016,-8.5252,-8.5252,-8.5251,-8.5251,-8.525,0,-8.4053,-8.4116,-8.4225,-8.4353,-8.4446,-8.4436,-8.4535,-8.4613,-8.4732,-8.4818,-8.4916,-8.5059,-8.5175,-8.5244,-8.536,-8.543,-8.543,-8.5459,-8.5454,-8.5466,-8.5288,-8.5253,-8.5457,-8.5457,-8.5457,-8.5457,-8.5457,-8.5457,-8.4177,-8.433,-8.4363,-8.4551,-8.4612,-8.4745,-8.4803,-8.488,-8.495,-8.5111,-8.5208,-8.5254,-8.5334,-8.5456,-8.5561,-8.5579,-8.5621,-8.5653,-8.5667,-8.55,-8.5478,-8.5458,-8.5425,-8.5662,-8.5662,-8.5836,-8.5838,-8.5839]}]]